Location: Härggis
(46.9540°N, 8.4897°E)
Time: 02:14:17
(UTC+00:00)

Thor Agena Rocket - Pass Details

Date: 27 May 2022
Orbit: 760 x 807 km, 99.0° (Epoch: 26 June)

Event Time Altitude Azimuth Distance (km) Brightness Sun altitude
Rises 01:14:03 0° 10° (N) 3,323 8.2 -17.3°
Reaches altitude 10° 01:16:27 10° 5° (N) 2,393 7.1 -17.2°
Maximum altitude 01:21:31 49° 292° (WNW) 1,037 4.1 -16.7°
Enters shadow 01:24:20 25° 230° (SW) 1,582 4.6 -16.5°
